Year,Month,Day,Hour,Minute,Value (Times are PST for barometer in hPa)
2020,11,13,00,00,995.53
2020,11,13,00,01,995.41
2020,11,13,00,02,995.42
2020,11,13,00,03,995.29
2020,11,13,00,04,995.29
2020,11,13,00,05,995.33
2020,11,13,00,06,995.28
2020,11,13,00,07,995.23
2020,11,13,00,08,995.19
2020,11,13,00,09,995.16
2020,11,13,00,10,995.06
2020,11,13,00,11,995.06
2020,11,13,00,12,995.01
2020,11,13,00,13,994.96
2020,11,13,00,14,994.91
2020,11,13,00,15,994.84
2020,11,13,00,16,994.79
2020,11,13,00,17,994.74
2020,11,13,00,18,994.68
2020,11,13,00,19,994.71
2020,11,13,00,20,994.64
2020,11,13,00,21,994.58
2020,11,13,00,22,994.55
2020,11,13,00,23,994.52
2020,11,13,00,24,994.48
2020,11,13,00,25,994.45
2020,11,13,00,26,994.45
2020,11,13,00,27,994.40
2020,11,13,00,28,994.30
2020,11,13,00,29,994.17
2020,11,13,00,30,994.11
2020,11,13,00,31,994.12
2020,11,13,00,32,994.20
2020,11,13,00,33,994.11
2020,11,13,00,34,994.11
2020,11,13,00,35,994.07
2020,11,13,00,36,994.07
2020,11,13,00,37,994.04
2020,11,13,00,38,994.00
2020,11,13,00,39,993.94
2020,11,13,00,40,993.90
2020,11,13,00,41,993.84
2020,11,13,00,42,993.83
2020,11,13,00,43,993.77
2020,11,13,00,44,993.73
2020,11,13,00,45,993.66
2020,11,13,00,46,993.60
2020,11,13,00,47,993.56
2020,11,13,00,48,993.46
2020,11,13,00,49,993.36
2020,11,13,00,50,993.33
2020,11,13,00,51,993.29
2020,11,13,00,52,993.22
2020,11,13,00,53,993.13
2020,11,13,00,54,993.08
2020,11,13,00,55,993.03
2020,11,13,00,56,993.05
2020,11,13,00,57,992.99
2020,11,13,00,58,992.99
2020,11,13,00,59,992.96
2020,11,13,01,00,992.96
2020,11,13,01,01,992.86
2020,11,13,01,02,992.81
2020,11,13,01,03,992.75
2020,11,13,01,04,992.72
2020,11,13,01,05,992.69
2020,11,13,01,06,992.64
2020,11,13,01,07,992.58
2020,11,13,01,08,992.57
2020,11,13,01,09,992.53
2020,11,13,01,10,992.58
2020,11,13,01,11,992.55
2020,11,13,01,12,992.52
2020,11,13,01,13,992.48
2020,11,13,01,14,992.44
2020,11,13,01,15,992.30
2020,11,13,01,16,992.21
2020,11,13,01,17,992.14
2020,11,13,01,18,992.11
2020,11,13,01,19,992.07
2020,11,13,01,20,992.01
2020,11,13,01,21,991.99
2020,11,13,01,22,992.04
2020,11,13,01,23,992.04
2020,11,13,01,24,992.04
2020,11,13,01,25,992.04
2020,11,13,01,26,992.04
2020,11,13,01,27,992.04
2020,11,13,01,28,992.04
2020,11,13,01,29,992.00
2020,11,13,01,30,991.95
2020,11,13,01,31,992.00
2020,11,13,01,32,991.91
2020,11,13,01,33,991.87
2020,11,13,01,34,991.84
2020,11,13,01,35,991.81
2020,11,13,01,36,991.77
2020,11,13,01,37,991.77
2020,11,13,01,38,991.81
2020,11,13,01,39,991.76
2020,11,13,01,40,991.70
2020,11,13,01,41,991.67
2020,11,13,01,42,991.70
2020,11,13,01,43,991.67
2020,11,13,01,44,991.64
2020,11,13,01,45,991.64
2020,11,13,01,46,991.60
2020,11,13,01,47,991.59
2020,11,13,01,48,991.52
2020,11,13,01,49,991.46
2020,11,13,01,50,991.37
2020,11,13,01,51,991.33
2020,11,13,01,52,991.26
2020,11,13,01,53,991.22
2020,11,13,01,54,991.16
2020,11,13,01,55,991.15
2020,11,13,01,56,991.05
2020,11,13,01,57,990.93
2020,11,13,01,58,990.92
2020,11,13,01,59,990.86
2020,11,13,02,00,990.86
2020,11,13,02,01,990.86
2020,11,13,02,02,990.85
2020,11,13,02,03,990.76
2020,11,13,02,04,990.76
2020,11,13,02,05,990.72
2020,11,13,02,06,990.71
2020,11,13,02,07,990.59
2020,11,13,02,08,990.59
2020,11,13,02,09,990.55
2020,11,13,02,10,990.54
2020,11,13,02,11,990.49
2020,11,13,02,12,990.45
2020,11,13,02,13,990.41
2020,11,13,02,14,990.28
2020,11,13,02,15,990.28
2020,11,13,02,16,990.21
2020,11,13,02,17,990.17
2020,11,13,02,18,990.10
2020,11,13,02,19,990.04
2020,11,13,02,20,990.04
2020,11,13,02,21,990.01
2020,11,13,02,22,989.98
2020,11,13,02,23,989.94
2020,11,13,02,24,989.90
2020,11,13,02,25,989.84
2020,11,13,02,26,989.81
2020,11,13,02,27,989.82
2020,11,13,02,28,989.88
2020,11,13,02,29,989.91
2020,11,13,02,30,989.91
2020,11,13,02,31,989.90
2020,11,13,02,32,989.77
2020,11,13,02,33,989.81
2020,11,13,02,34,989.78
2020,11,13,02,35,989.90
2020,11,13,02,36,989.84
2020,11,13,02,37,989.81
2020,11,13,02,38,989.77
2020,11,13,02,39,989.73
2020,11,13,02,40,989.60
2020,11,13,02,41,989.59
2020,11,13,02,42,989.50
2020,11,13,02,43,989.50
2020,11,13,02,44,989.50
2020,11,13,02,45,989.50
2020,11,13,02,46,989.50
2020,11,13,02,47,989.48
2020,11,13,02,48,989.56
2020,11,13,02,49,989.49
2020,11,13,02,50,989.44
2020,11,13,02,51,989.44
2020,11,13,02,52,989.46
2020,11,13,02,53,989.40
2020,11,13,02,54,989.36
2020,11,13,02,55,989.30
2020,11,13,02,56,989.23
2020,11,13,02,57,989.26
2020,11,13,02,58,989.20
2020,11,13,02,59,989.20
2020,11,13,03,00,989.13
2020,11,13,03,01,989.16
2020,11,13,03,02,989.20
2020,11,13,03,03,989.13
2020,11,13,03,04,989.09
2020,11,13,03,05,989.00
2020,11,13,03,06,988.99
2020,11,13,03,07,988.93
2020,11,13,03,08,988.92
2020,11,13,03,09,988.86
2020,11,13,03,10,988.90
2020,11,13,03,11,988.95
2020,11,13,03,12,988.89
2020,11,13,03,13,988.93
2020,11,13,03,14,988.92
2020,11,13,03,15,988.85
2020,11,13,03,16,988.79
2020,11,13,03,17,988.76
2020,11,13,03,18,988.76
2020,11,13,03,19,988.76
2020,11,13,03,20,988.71
2020,11,13,03,21,988.66
2020,11,13,03,22,988.59
2020,11,13,03,23,988.59
2020,11,13,03,24,988.62
2020,11,13,03,25,988.62
2020,11,13,03,26,988.58
2020,11,13,03,27,988.52
2020,11,13,03,28,988.49
2020,11,13,03,29,988.42
2020,11,13,03,30,988.41
2020,11,13,03,31,988.32
2020,11,13,03,32,988.32
2020,11,13,03,33,988.25
2020,11,13,03,34,988.25
2020,11,13,03,35,988.24
2020,11,13,03,36,988.18
2020,11,13,03,37,988.18
2020,11,13,03,38,988.18
2020,11,13,03,39,988.18
2020,11,13,03,40,988.18
2020,11,13,03,41,988.18
2020,11,13,03,42,988.15
2020,11,13,03,43,988.15
2020,11,13,03,44,988.15
2020,11,13,03,45,988.11
2020,11,13,03,46,988.15
2020,11,13,03,47,988.15
2020,11,13,03,48,988.11
2020,11,13,03,49,988.08
2020,11,13,03,50,988.04
2020,11,13,03,51,987.98
2020,11,13,03,52,987.98
2020,11,13,03,53,987.98
2020,11,13,03,54,987.95
2020,11,13,03,55,987.91
2020,11,13,03,56,987.91
2020,11,13,03,57,987.95
2020,11,13,03,58,987.99
2020,11,13,03,59,988.08
2020,11,13,04,00,988.05
2020,11,13,04,01,988.15
2020,11,13,04,02,988.11
2020,11,13,04,03,988.11
2020,11,13,04,04,988.18
2020,11,13,04,05,988.25
2020,11,13,04,06,988.28
2020,11,13,04,07,988.28
2020,11,13,04,08,988.32
2020,11,13,04,09,988.32
2020,11,13,04,10,988.33
2020,11,13,04,11,988.40
2020,11,13,04,12,988.45
2020,11,13,04,13,988.45
2020,11,13,04,14,988.52
2020,11,13,04,15,988.49
2020,11,13,04,16,988.59
2020,11,13,04,17,988.62
2020,11,13,04,18,988.66
2020,11,13,04,19,988.69
2020,11,13,04,20,988.72
2020,11,13,04,21,988.69
2020,11,13,04,22,988.62
2020,11,13,04,23,988.60
2020,11,13,04,24,988.42
2020,11,13,04,25,988.13
2020,11,13,04,26,987.89
2020,11,13,04,27,987.73
2020,11,13,04,28,987.61
2020,11,13,04,29,987.57
2020,11,13,04,30,987.50
2020,11,13,04,31,987.36
2020,11,13,04,32,987.22
2020,11,13,04,33,987.12
2020,11,13,04,34,987.02
2020,11,13,04,35,986.96
2020,11,13,04,36,986.89
2020,11,13,04,37,986.78
2020,11,13,04,38,986.94
2020,11,13,04,39,987.02
2020,11,13,04,40,986.93
2020,11,13,04,41,986.61
2020,11,13,04,42,986.52
2020,11,13,04,43,986.56
2020,11,13,04,44,986.58
2020,11,13,04,45,986.52
2020,11,13,04,46,986.57
2020,11,13,04,47,986.70
2020,11,13,04,48,986.79
2020,11,13,04,49,986.75
2020,11,13,04,50,986.69
2020,11,13,04,51,986.73
2020,11,13,04,52,986.77
2020,11,13,04,53,986.83
2020,11,13,04,54,986.79
2020,11,13,04,55,986.76
2020,11,13,04,56,986.75
2020,11,13,04,57,986.69
2020,11,13,04,58,986.74
2020,11,13,04,59,986.79
2020,11,13,05,00,986.76
2020,11,13,05,01,986.73
2020,11,13,05,02,986.73
2020,11,13,05,03,986.73
2020,11,13,05,04,986.73
2020,11,13,05,05,986.73
2020,11,13,05,06,986.73
2020,11,13,05,07,986.77
2020,11,13,05,08,986.86
2020,11,13,05,09,986.90
2020,11,13,05,10,986.90
2020,11,13,05,11,986.93
2020,11,13,05,12,986.96
2020,11,13,05,13,986.94
2020,11,13,05,14,987.00
2020,11,13,05,15,987.03
2020,11,13,05,16,987.10
2020,11,13,05,17,987.13
2020,11,13,05,18,987.17
2020,11,13,05,19,987.17
2020,11,13,05,20,987.13
2020,11,13,05,21,987.06
2020,11,13,05,22,987.03
2020,11,13,05,23,987.06
2020,11,13,05,24,987.03
2020,11,13,05,25,987.06
2020,11,13,05,26,987.10
2020,11,13,05,27,987.10
2020,11,13,05,28,987.13
2020,11,13,05,29,987.06
2020,11,13,05,30,987.03
2020,11,13,05,31,987.06
2020,11,13,05,32,987.06
2020,11,13,05,33,987.00
2020,11,13,05,34,987.03
2020,11,13,05,35,986.96
2020,11,13,05,36,987.00
2020,11,13,05,37,986.96
2020,11,13,05,38,986.96
2020,11,13,05,39,986.93
2020,11,13,05,40,986.96
2020,11,13,05,41,987.00
2020,11,13,05,42,987.03
2020,11,13,05,43,987.00
2020,11,13,05,44,986.99
2020,11,13,05,45,986.86
2020,11,13,05,46,986.96
2020,11,13,05,47,986.94
2020,11,13,05,48,987.00
2020,11,13,05,49,987.03
2020,11,13,05,50,987.00
2020,11,13,05,51,987.00
2020,11,13,05,52,987.00
2020,11,13,05,53,986.96
2020,11,13,05,54,986.92
2020,11,13,05,55,986.86
2020,11,13,05,56,986.79
2020,11,13,05,57,986.76
2020,11,13,05,58,986.73
2020,11,13,05,59,986.79
2020,11,13,06,00,986.79
2020,11,13,06,01,986.79
2020,11,13,06,02,986.83
2020,11,13,06,03,986.83
2020,11,13,06,04,986.79
2020,11,13,06,05,986.76
2020,11,13,06,06,986.76
2020,11,13,06,07,986.76
2020,11,13,06,08,986.73
2020,11,13,06,09,986.69
2020,11,13,06,10,986.73
2020,11,13,06,11,986.73
2020,11,13,06,12,986.69
2020,11,13,06,13,986.75
2020,11,13,06,14,986.69
2020,11,13,06,15,986.69
2020,11,13,06,16,986.69
2020,11,13,06,17,986.69
2020,11,13,06,18,986.67
2020,11,13,06,19,986.72
2020,11,13,06,20,986.66
2020,11,13,06,21,986.66
2020,11,13,06,22,986.66
2020,11,13,06,23,986.69
2020,11,13,06,24,986.70
2020,11,13,06,25,986.79
2020,11,13,06,26,986.79
2020,11,13,06,27,986.76
2020,11,13,06,28,986.76
2020,11,13,06,29,986.76
2020,11,13,06,30,986.74
2020,11,13,06,31,986.79
2020,11,13,06,32,986.83
2020,11,13,06,33,986.79
2020,11,13,06,34,986.85
2020,11,13,06,35,986.79
2020,11,13,06,36,986.73
2020,11,13,06,37,986.73
2020,11,13,06,38,986.69
2020,11,13,06,39,986.76
2020,11,13,06,40,986.79
2020,11,13,06,41,986.76
2020,11,13,06,42,986.73
2020,11,13,06,43,986.69
2020,11,13,06,44,986.74
2020,11,13,06,45,986.86
2020,11,13,06,46,986.86
2020,11,13,06,47,986.86
2020,11,13,06,48,986.83
2020,11,13,06,49,986.83
2020,11,13,06,50,986.83
2020,11,13,06,51,986.91
2020,11,13,06,52,987.00
2020,11,13,06,53,987.06
2020,11,13,06,54,987.00
2020,11,13,06,55,986.99
2020,11,13,06,56,986.86
2020,11,13,06,57,986.79
2020,11,13,06,58,986.76
2020,11,13,06,59,986.79
2020,11,13,07,00,986.79
2020,11,13,07,01,986.91
2020,11,13,07,02,987.00
2020,11,13,07,03,986.96
2020,11,13,07,04,986.93
2020,11,13,07,05,986.85
2020,11,13,07,06,986.76
2020,11,13,07,07,986.83
2020,11,13,07,08,986.86
2020,11,13,07,09,986.90
2020,11,13,07,10,986.86
2020,11,13,07,11,986.86
2020,11,13,07,12,986.86
2020,11,13,07,13,986.90
2020,11,13,07,14,986.90
2020,11,13,07,15,986.90
2020,11,13,07,16,986.93
2020,11,13,07,17,986.96
2020,11,13,07,18,987.00
2020,11,13,07,19,987.00
2020,11,13,07,20,986.96
2020,11,13,07,21,986.96
2020,11,13,07,22,986.96
2020,11,13,07,23,986.93
2020,11,13,07,24,986.90
2020,11,13,07,25,986.93
2020,11,13,07,26,986.96
2020,11,13,07,27,986.96
2020,11,13,07,28,986.93
2020,11,13,07,29,986.93
2020,11,13,07,30,986.86
2020,11,13,07,31,986.79
2020,11,13,07,32,986.83
2020,11,13,07,33,986.83
2020,11,13,07,34,986.79
2020,11,13,07,35,986.79
2020,11,13,07,36,986.76
2020,11,13,07,37,986.73
2020,11,13,07,38,986.69
2020,11,13,07,39,986.69
2020,11,13,07,40,986.76
2020,11,13,07,41,986.76
2020,11,13,07,42,986.79
2020,11,13,07,43,986.90
2020,11,13,07,44,986.83
2020,11,13,07,45,986.76
2020,11,13,07,46,986.83
2020,11,13,07,47,986.90
2020,11,13,07,48,986.90
2020,11,13,07,49,986.95
2020,11,13,07,50,986.90
2020,11,13,07,51,986.87
2020,11,13,07,52,987.01
2020,11,13,07,53,987.07
2020,11,13,07,54,987.13
2020,11,13,07,55,987.11
2020,11,13,07,56,987.21
2020,11,13,07,57,987.30
2020,11,13,07,58,987.34
2020,11,13,07,59,987.40
2020,11,13,08,00,987.44
2020,11,13,08,01,987.51
2020,11,13,08,02,987.51
2020,11,13,08,03,987.47
2020,11,13,08,04,987.55
2020,11,13,08,05,987.67
2020,11,13,08,06,987.64
2020,11,13,08,07,987.67
2020,11,13,08,08,987.72
2020,11,13,08,09,987.78
2020,11,13,08,10,987.82
2020,11,13,08,11,987.91
2020,11,13,08,12,987.98
2020,11,13,08,13,988.02
2020,11,13,08,14,988.11
2020,11,13,08,15,988.05
2020,11,13,08,16,988.12
2020,11,13,08,17,988.18
2020,11,13,08,18,988.28
2020,11,13,08,19,988.22
2020,11,13,08,20,988.32
2020,11,13,08,21,988.39
2020,11,13,08,22,988.35
2020,11,13,08,23,988.39
2020,11,13,08,24,988.40
2020,11,13,08,25,988.45
2020,11,13,08,26,988.45
2020,11,13,08,27,988.45
2020,11,13,08,28,988.42
2020,11,13,08,29,988.52
2020,11,13,08,30,988.52
2020,11,13,08,31,988.55
2020,11,13,08,32,988.59
2020,11,13,08,33,988.60
2020,11,13,08,34,988.78
2020,11,13,08,35,988.69
2020,11,13,08,36,988.63
2020,11,13,08,37,988.76
2020,11,13,08,38,988.76
2020,11,13,08,39,988.70
2020,11,13,08,40,988.79
2020,11,13,08,41,988.76
2020,11,13,08,42,988.66
2020,11,13,08,54,988.93
2020,11,13,08,55,989.00
2020,11,13,08,56,989.12
2020,11,13,08,57,989.01
2020,11,13,08,58,989.20
2020,11,13,08,59,989.20
2020,11,13,09,00,989.27
2020,11,13,09,01,989.20
2020,11,13,09,02,989.21
2020,11,13,09,03,989.34
2020,11,13,09,04,989.47
2020,11,13,09,05,989.44
2020,11,13,09,06,989.47
2020,11,13,09,07,989.57
2020,11,13,09,08,989.64
2020,11,13,09,09,989.64
2020,11,13,09,10,989.71
2020,11,13,09,11,989.67
2020,11,13,09,12,989.64
2020,11,13,09,13,989.81
2020,11,13,09,14,989.81
2020,11,13,09,15,989.84
2020,11,13,09,16,989.91
2020,11,13,09,17,989.84
2020,11,13,09,18,989.94
2020,11,13,09,19,990.01
2020,11,13,09,20,989.94
2020,11,13,09,21,989.95
2020,11,13,09,22,990.04
2020,11,13,09,23,990.08
2020,11,13,09,24,989.98
2020,11,13,09,25,989.91
2020,11,13,09,26,990.01
2020,11,13,09,27,990.08
2020,11,13,09,28,990.05
2020,11,13,09,29,990.21
2020,11,13,09,30,990.15
2020,11,13,09,31,990.15
2020,11,13,09,32,990.18
2020,11,13,09,33,990.18
2020,11,13,09,34,990.21
2020,11,13,09,35,990.25
2020,11,13,09,36,990.25
2020,11,13,09,37,990.25
2020,11,13,09,38,990.25
2020,11,13,09,39,990.21
2020,11,13,09,40,990.18
2020,11,13,09,41,990.24
2020,11,13,09,42,990.16
2020,11,13,09,43,990.35
2020,11,13,09,44,990.38
2020,11,13,09,45,990.35
2020,11,13,09,46,990.45
2020,11,13,09,47,990.43
2020,11,13,09,48,990.59
2020,11,13,09,49,990.52
2020,11,13,09,50,990.52
2020,11,13,09,51,990.55
2020,11,13,09,52,990.55
2020,11,13,09,53,990.62
2020,11,13,09,54,990.69
2020,11,13,09,55,990.65
2020,11,13,09,56,990.60
2020,11,13,09,57,990.76
2020,11,13,09,58,990.78
2020,11,13,09,59,990.63
2020,11,13,10,00,990.76
2020,11,13,10,01,990.69
2020,11,13,10,02,990.82
2020,11,13,10,03,990.85
2020,11,13,10,04,990.76
2020,11,13,10,05,990.83
2020,11,13,10,06,990.93
2020,11,13,10,07,990.92
2020,11,13,10,08,990.83
2020,11,13,10,09,990.96
2020,11,13,10,10,990.93
2020,11,13,10,11,991.03
2020,11,13,10,12,991.03
2020,11,13,10,13,990.99
2020,11,13,10,14,991.09
2020,11,13,10,15,991.16
2020,11,13,10,16,991.16
2020,11,13,10,17,991.20
2020,11,13,10,18,991.16
2020,11,13,10,19,991.23
2020,11,13,10,20,991.20
2020,11,13,10,21,991.20
2020,11,13,10,22,991.23
2020,11,13,10,23,991.23
2020,11,13,10,24,991.23
2020,11,13,10,25,991.23
2020,11,13,10,26,991.34
2020,11,13,10,27,991.42
2020,11,13,10,28,991.31
2020,11,13,10,29,991.43
2020,11,13,10,30,991.50
2020,11,13,10,31,991.53
2020,11,13,10,32,991.50
2020,11,13,10,33,991.57
2020,11,13,10,34,991.67
2020,11,13,10,35,991.74
2020,11,13,10,36,991.81
2020,11,13,10,37,991.84
2020,11,13,10,38,991.85
2020,11,13,10,39,991.98
2020,11,13,10,40,991.91
2020,11,13,10,41,992.02
2020,11,13,10,42,992.14
2020,11,13,10,43,992.11
2020,11,13,10,44,992.11
2020,11,13,10,45,992.05
2020,11,13,10,46,992.21
2020,11,13,10,47,992.21
2020,11,13,10,48,992.31
2020,11,13,10,49,992.38
2020,11,13,10,50,992.45
2020,11,13,10,51,992.45
2020,11,13,10,52,992.45
2020,11,13,10,53,992.52
2020,11,13,10,54,992.58
2020,11,13,10,55,992.52
2020,11,13,10,56,992.52
2020,11,13,10,57,992.59
2020,11,13,10,58,992.71
2020,11,13,10,59,992.59
2020,11,13,11,00,992.72
2020,11,13,11,01,992.86
2020,11,13,11,02,992.86
2020,11,13,11,03,992.76
2020,11,13,11,04,992.88
2020,11,13,11,05,992.72
2020,11,13,11,06,992.89
2020,11,13,11,07,992.89
2020,11,13,11,08,992.82
2020,11,13,11,09,992.86
2020,11,13,11,10,992.92
2020,11,13,11,11,992.87
2020,11,13,11,12,992.99
2020,11,13,11,13,993.06
2020,11,13,11,14,993.05
2020,11,13,11,15,992.96
2020,11,13,11,16,993.03
2020,11,13,11,17,993.06
2020,11,13,11,18,993.18
2020,11,13,11,19,993.09
2020,11,13,11,20,993.10
2020,11,13,11,21,993.23
2020,11,13,11,22,993.26
2020,11,13,11,23,993.30
2020,11,13,11,24,993.33
2020,11,13,11,25,993.31
2020,11,13,11,26,993.43
2020,11,13,11,27,993.47
2020,11,13,11,28,993.47
2020,11,13,11,29,993.43
2020,11,13,11,30,993.49
2020,11,13,11,31,993.40
2020,11,13,11,32,993.47
2020,11,13,11,33,993.40
2020,11,13,11,34,993.47
2020,11,13,11,35,993.57
2020,11,13,11,36,993.47
2020,11,13,11,37,993.53
2020,11,13,11,38,993.58
2020,11,13,11,39,993.67
2020,11,13,11,40,993.74
2020,11,13,11,41,993.77
2020,11,13,11,42,993.77
2020,11,13,11,43,993.77
2020,11,13,11,44,993.85
2020,11,13,11,45,993.97
2020,11,13,11,46,993.84
2020,11,13,11,47,993.87
2020,11,13,11,48,993.91
2020,11,13,11,49,994.01
2020,11,13,11,50,993.97
2020,11,13,11,51,994.04
2020,11,13,11,52,994.04
2020,11,13,11,53,993.97
2020,11,13,11,54,993.95
2020,11,13,11,55,994.04
2020,11,13,11,56,994.15
2020,11,13,11,57,994.31
2020,11,13,11,58,994.14
2020,11,13,11,59,994.14
2020,11,13,12,00,994.07
2020,11,13,12,01,994.07
2020,11,13,12,02,994.11
2020,11,13,12,03,994.18
2020,11,13,12,04,994.21
2020,11,13,12,05,994.24
2020,11,13,12,06,994.31
2020,11,13,12,07,994.21
2020,11,13,12,08,994.35
2020,11,13,12,09,994.21
2020,11,13,12,10,994.29
2020,11,13,12,11,994.45
2020,11,13,12,12,994.45
2020,11,13,12,13,994.45
2020,11,13,12,14,994.46
2020,11,13,12,15,994.62
2020,11,13,12,16,994.59
2020,11,13,12,17,994.72
2020,11,13,12,18,994.63
2020,11,13,12,19,994.81
2020,11,13,12,20,994.65
2020,11,13,12,21,994.74
2020,11,13,12,22,994.59
2020,11,13,12,23,994.75
2020,11,13,12,24,994.91
2020,11,13,12,25,994.82
2020,11,13,12,26,994.89
2020,11,13,12,27,994.96
2020,11,13,12,28,994.99
2020,11,13,12,29,995.02
2020,11,13,12,30,995.03
2020,11,13,12,31,995.18
2020,11,13,12,32,995.06
2020,11,13,12,33,995.08
2020,11,13,12,34,994.97
2020,11,13,14,30,998.27
2020,11,13,14,31,998.27
2020,11,13,14,32,998.31
2020,11,13,14,33,998.38
2020,11,13,14,34,998.44
2020,11,13,14,35,998.51
2020,11,13,14,36,998.44
2020,11,13,14,37,998.54
2020,11,13,14,38,998.43
2020,11,13,14,39,998.31
2020,11,13,14,40,998.26
2020,11,13,14,41,998.10
2020,11,13,14,42,998.23
2020,11,13,14,43,998.07
2020,11,13,14,44,998.14
2020,11,13,14,45,998.21
2020,11,13,14,46,998.24
2020,11,13,14,47,998.24
2020,11,13,14,48,998.31
2020,11,13,14,49,998.34
2020,11,13,14,50,998.31
2020,11,13,14,51,998.39
2020,11,13,14,52,998.48
2020,11,13,14,53,998.44
2020,11,13,14,54,998.51
2020,11,13,14,55,998.58
2020,11,13,14,56,998.61
2020,11,13,14,57,998.68
2020,11,13,14,58,998.78
2020,11,13,14,59,998.88
2020,11,13,15,00,998.88
2020,11,13,15,01,998.95
2020,11,13,15,02,999.02
2020,11,13,15,03,999.11
2020,11,13,15,04,998.99
2020,11,13,15,05,999.05
2020,11,13,15,06,999.05
2020,11,13,15,07,999.26
2020,11,13,15,08,999.15
2020,11,13,15,09,999.22
2020,11,13,15,10,999.29
2020,11,13,15,11,999.32
2020,11,13,15,12,999.29
2020,11,13,15,13,999.26
2020,11,13,15,14,999.29
2020,11,13,15,15,999.39
2020,11,13,15,16,999.36
2020,11,13,15,17,999.33
2020,11,13,15,18,999.42
2020,11,13,15,19,999.32
2020,11,13,15,20,999.49
2020,11,13,15,21,999.46
2020,11,13,15,22,999.53
2020,11,13,15,23,999.59
2020,11,13,15,24,999.53
2020,11,13,15,25,999.59
2020,11,13,15,26,999.56
2020,11,13,15,27,999.54
2020,11,13,15,28,999.66
2020,11,13,15,29,999.76
2020,11,13,15,30,999.73
2020,11,13,15,31,999.80
2020,11,13,15,32,999.77
2020,11,13,15,33,999.87
2020,11,13,15,34,999.83
2020,11,13,15,35,999.90
2020,11,13,15,36,999.90
2020,11,13,15,37,999.98
2020,11,13,15,38,1000.10
2020,11,13,15,39,1000.14
2020,11,13,15,40,1000.20
2020,11,13,15,41,1000.17
2020,11,13,15,42,1000.24
2020,11,13,15,43,1000.17
2020,11,13,15,44,1000.24
2020,11,13,15,45,1000.24
2020,11,13,15,46,1000.28
2020,11,13,15,47,1000.37
2020,11,13,15,48,1000.41
2020,11,13,15,49,1000.48
2020,11,13,15,50,1000.58
2020,11,13,15,51,1000.54
2020,11,13,15,52,1000.48
2020,11,13,15,53,1000.54
2020,11,13,15,54,1000.54
2020,11,13,15,55,1000.54
2020,11,13,15,56,1000.51
2020,11,13,15,57,1000.54
2020,11,13,15,58,1000.58
2020,11,13,15,59,1000.54
2020,11,13,16,00,1000.64
2020,11,13,16,01,1000.64
2020,11,13,16,02,1000.68
2020,11,13,16,03,1000.71
2020,11,13,16,04,1000.78
2020,11,13,16,05,1000.81
2020,11,13,16,06,1000.81
2020,11,13,16,07,1000.78
2020,11,13,16,08,1000.81
2020,11,13,16,09,1000.85
2020,11,13,16,10,1000.88
2020,11,13,16,11,1000.82
2020,11,13,16,12,1000.95
2020,11,13,16,13,1000.92
2020,11,13,16,14,1000.82
2020,11,13,16,15,1000.95
2020,11,13,16,16,1000.88
2020,11,13,16,17,1000.95
2020,11,13,16,18,1000.95
2020,11,13,16,19,1001.02
2020,11,13,16,20,1001.02
2020,11,13,16,21,1001.08
2020,11,13,16,22,1001.08
2020,11,13,16,23,1001.22
2020,11,13,16,24,1001.19
2020,11,13,16,25,1001.12
2020,11,13,16,26,1001.22
2020,11,13,16,27,1001.29
2020,11,13,16,28,1001.32
2020,11,13,16,29,1001.32
2020,11,13,16,30,1001.32
2020,11,13,16,31,1001.32
2020,11,13,16,32,1001.39
2020,11,13,16,33,1001.39
2020,11,13,16,34,1001.42
2020,11,13,16,35,1001.52
2020,11,13,16,36,1001.56
2020,11,13,16,37,1001.59
2020,11,13,16,38,1001.66
2020,11,13,16,39,1001.69
2020,11,13,16,40,1001.77
2020,11,13,16,41,1001.86
2020,11,13,16,42,1001.76
2020,11,13,16,43,1001.83
2020,11,13,16,44,1001.86
2020,11,13,16,45,1001.86
2020,11,13,16,46,1001.97
2020,11,13,16,47,1001.97
2020,11,13,16,48,1001.97
2020,11,13,16,49,1002.00
2020,11,13,16,50,1001.93
2020,11,13,16,51,1001.90
2020,11,13,16,52,1001.84
2020,11,13,16,53,1001.93
2020,11,13,16,54,1001.93
2020,11,13,16,55,1001.90
2020,11,13,16,56,1002.00
2020,11,13,16,57,1001.97
2020,11,13,16,58,1002.03
2020,11,13,16,59,1002.07
2020,11,13,17,00,1002.07
2020,11,13,17,01,1002.07
2020,11,13,17,02,1002.07
2020,11,13,17,03,1002.07
2020,11,13,17,04,1002.07
2020,11,13,17,05,1002.07
2020,11,13,17,06,1002.03
2020,11,13,17,07,1002.07
2020,11,13,17,08,1002.17
2020,11,13,17,09,1002.13
2020,11,13,17,10,1002.24
2020,11,13,17,11,1002.30
2020,11,13,17,12,1002.27
2020,11,13,17,13,1002.27
2020,11,13,17,14,1002.30
2020,11,13,17,15,1002.37
2020,11,13,17,16,1002.41
2020,11,13,17,17,1002.41
2020,11,13,17,18,1002.47
2020,11,13,17,19,1002.54
2020,11,13,17,20,1002.51
2020,11,13,17,21,1002.54
2020,11,13,17,22,1002.57
2020,11,13,17,23,1002.48
2020,11,13,17,24,1002.64
2020,11,13,17,25,1002.51
2020,11,13,17,26,1002.54
2020,11,13,17,27,1002.54
2020,11,13,17,28,1002.68
2020,11,13,17,29,1002.64
2020,11,13,17,30,1002.68
2020,11,13,17,31,1002.68
2020,11,13,17,32,1002.69
2020,11,13,17,33,1002.81
2020,11,13,17,34,1002.86
2020,11,13,17,35,1002.98
2020,11,13,17,36,1002.95
2020,11,13,17,37,1002.98
2020,11,13,17,38,1003.01
2020,11,13,17,39,1003.01
2020,11,13,17,40,1002.91
2020,11,13,17,41,1002.95
2020,11,13,17,42,1002.98
2020,11,13,17,43,1003.01
2020,11,13,17,44,1003.08
2020,11,13,17,45,1003.05
2020,11,13,17,46,1003.08
2020,11,13,17,47,1003.09
2020,11,13,17,48,1003.18
2020,11,13,17,49,1003.12
2020,11,13,17,50,1003.12
2020,11,13,17,51,1003.15
2020,11,13,17,52,1003.09
2020,11,13,17,53,1003.18
2020,11,13,17,54,1003.22
2020,11,13,17,55,1003.18
2020,11,13,17,56,1003.25
2020,11,13,17,57,1003.33
2020,11,13,17,58,1003.46
2020,11,13,17,59,1003.49
2020,11,13,18,00,1003.56
2020,11,13,18,01,1003.66
2020,11,13,18,02,1003.66
2020,11,13,18,03,1003.59
2020,11,13,18,04,1003.62
2020,11,13,18,05,1003.69
2020,11,13,18,06,1003.69
2020,11,13,18,07,1003.73
2020,11,13,18,08,1003.83
2020,11,13,18,09,1003.86
2020,11,13,18,10,1003.83
2020,11,13,18,11,1003.83
2020,11,13,18,12,1003.83
2020,11,13,18,13,1003.83
2020,11,13,18,14,1003.86
2020,11,13,18,15,1003.83
2020,11,13,18,16,1003.83
2020,11,13,18,17,1003.79
2020,11,13,18,18,1003.79
2020,11,13,18,19,1003.86
2020,11,13,18,20,1003.90
2020,11,13,18,21,1003.86
2020,11,13,18,22,1003.83
2020,11,13,18,23,1003.96
2020,11,13,18,24,1003.96
2020,11,13,18,25,1004.03
2020,11,13,18,26,1004.06
2020,11,13,18,27,1004.17
2020,11,13,18,28,1004.23
2020,11,13,18,29,1004.20
2020,11,13,18,30,1004.27
2020,11,13,18,31,1004.30
2020,11,13,18,32,1004.27
2020,11,13,18,33,1004.30
2020,11,13,18,34,1004.30